Location: Vassar Physics Lab
(41.6843°N, 73.8954°W)
Time: 01:34:04
(UTC-05:00)

CZ-4B DEB - Visible Passes

Search period start: 11 February 2016 00:00
Search period end: 21 February 2016 00:00
Orbit: 841 x 863 km, 98.9° (Epoch: 10 February)

Date Brightness Start Highest point End Pass type
(mag) Time Alt. Az. Time Alt. Az. Time Alt. Az.
11 Feb 6.7 03:13:40 10° NNE 03:14:26 14° NNE 03:14:26 14° NNE visible
11 Feb 6.1 04:55:08 10° NNW 04:56:29 16° NNW 04:56:29 16° NNW visible
12 Feb 6.8 03:02:30 10° NNE 03:03:07 13° NNE 03:03:07 13° NNE visible
12 Feb 6.0 04:43:33 10° N 04:45:09 18° NNW 04:45:09 18° NNW visible
13 Feb 7.0 02:51:22 10° NNE 02:51:48 12° NE 02:51:48 12° NE visible
13 Feb 5.9 04:32:00 10° N 04:33:50 20° NNW 04:33:50 20° NNW visible
14 Feb 7.1 02:40:19 10° NE 02:40:28 11° NE 02:40:28 11° NE visible
14 Feb 5.9 04:20:31 10° N 04:22:31 22° N 04:22:31 22° N visible
15 Feb 5.8 04:09:05 10° N 04:11:12 24° N 04:11:12 24° N visible
16 Feb 5.8 03:57:40 10° N 03:59:53 25° N 03:59:53 25° N visible
17 Feb 5.9 03:46:19 10° NNE 03:48:34 25° NNE 03:48:34 25° NNE visible
17 Feb 6.1 05:29:22 10° NNW 05:30:37 12° NW 05:30:37 12° NW visible
18 Feb 6.0 03:35:00 10° NNE 03:37:14 25° NNE 03:37:14 25° NNE visible
18 Feb 5.9 05:17:21 10° NNW 05:19:18 15° NW 05:19:18 15° NW visible
19 Feb 6.1 03:23:43 10° NNE 03:25:56 25° NNE 03:25:56 25° NNE visible
19 Feb 5.8 05:05:33 10° NNW 05:07:59 18° NW 05:07:59 18° NW visible
20 Feb 6.2 03:12:29 10° NNE 03:14:37 23° NE 03:14:37 23° NE visible
20 Feb 5.6 04:53:53 10° NNW 04:56:40 21° NW 04:56:40 21° NW visible
